RH
25 26 27 33 39 36 36 41 43 47 59 54 55 60 61 62 61 57 59 60 64 57 53 51 51 50 50 55 57 58 56 50 47 45 48 49 45 46 46 50 47 45 42
23 24 30 35 37 40 40 46 47 44 50 49 50 54 57 60 64 67 67 61 64 62 58 58 59 61 64 60 61 64 66 56 47 41 42 40 38 38 44 42 43 45 43
29 30 34 34 35 38 45 45 50 49 47 49 49 53 52 55 68 77 78 71 65 66 64 61 60 66 68 71 67 60 53 51 55 51 48 42 43 43 46 40 45 55 51
34 39 38 38 36 42 47 50 53 54 50 50 50 48 50 53 67 73 75 75 67 70 65 63 63 68 73 80 80 77 70 67 62 62 56 49 46 47 59 50 52 53 55
36 39 39 40 42 44 48 52 54 56 55 52 51 48 52 56 63 67 72 71 71 73 67 66 67 70 72 76 80 81 76 73 68 58 54 51 49 52 55 53 54 50 48
38 37 38 43 44 48 54 56 57 55 59 61 58 56 57 59 63 62 67 71 69 76 73 75 73 73 74 75 82 83 82 76 67 59 57 47 47 50 56 55 50 48 45
35 36 39 41 43 50 53 55 56 58 60 60 65 63 59 60 61 66 68 76 74 80 83 79 75 81 85 85 84 86 84 76 68 61 50 46 49 49 46 45 47 45 40
31 33 39 45 50 51 51 49 47 53 56 61 65 64 61 62 66 70 79 79 83 83 79 79 81 83 83 87 90 94 91 83 74 57 46 44 47 46 47 51 46 36 34
31 34 39 43 46 46 46 46 47 51 58 60 64 64 62 67 67 73 83 80 82 84 82 80 81 84 88 90 89 87 84 73 60 49 50 48 48 48 55 48 42 40 40
38 39 39 38 40 43 46 47 49 58 60 60 63 63 61 66 73 79 79 72 71 82 88 80 86 85 88 87 86 78 68 58 53 52 55 52 50 53 56 50 49 52 53
37 36 37 39 41 44 45 49 56 62 64 65 66 63 58 68 70 75 73 73 70 77 81 76 80 81 82 81 73 66 54 53 49 50 53 53 61 62 58 53 50 50 50
37 39 41 41 42 47 48 53 58 64 66 67 63 63 59 66 68 68 72 70 75 76 74 71 74 76 81 73 64 54 54 52 51 56 57 59 61 53 46 46 40 42 40
42 43 42 44 46 47 51 57 61 65 64 60 62 58 59 69 74 72 76 76 73 72 79 79 79 76 71 64 59 59 56 54 56 60 62 54 47 47 44 45 44 41 37
45 44 44 46 48 51 56 62 66 58 55 56 58 59 64 71 72 76 73 72 75 80 76 73 75 73 67 60 58 57 55 57 63 60 51 55 51 52 49 44 39 34 32
41 43 47 50 53 58 61 61 61 51 50 53 60 63 66 68 68 67 75 79 82 76 83 84 76 65 63 62 61 60 60 61 66 62 58 57 52 49 41 35 30 33 37
48 49 51 54 57 57 57 58 53 52 54 60 59 58 59 57 59 68 73 84 77 70 75 75 70 64 62 61 62 65 67 67 65 66 60 50 48 45 38 31 34 35 37
55 56 56 58 55 58 58 54 52 48 48 48 46 46 48 55 56 58 65 70 70 67 65 61 57 61 62 62 64 67 67 66 62 60 53 51 46 41 35 32 31 32 34
54 51 51 55 52 45 45 44 43 40 37 36 38 44 53 58 63 64 64 61 56 52 51 55 58 54 60 60 59 59 61 60 56 53 49 43 39 34 30 31 29 28 27
48 48 50 44 45 41 37 41 43 43 44 45 46 53 60 60 60 59 55 50 52 54 56 53 48 49 52 55 57 60 60 52 48 41 38 34 31 28 28 27 26 26 25
48 47 42 39 35 37 40 39 41 47 56 68 58 59 59 58 56 51 48 50 53 53 49 42 42 45 48 53 55 56 51 46 41 36 34 28 28 25 28 26 26 25 25
42 42 38 41 41 41 40 45 55 62 68 67 61 62 54 51 51 55 53 54 52 47 43 42 44 40 41 41 43 45 42 38 36 30 27 26 26 26 28 27 25 24 24
46 46 39 47 50 46 50 56 67 71 69 68 67 62 59 57 55 58 53 49 45 43 44 43 38 36 36 35 35 33 31 32 30 25 23 24 23 26 23 26 24 24 24
50 52 48 49 56 52 65 68 71 67 66 72 65 57 56 55 53 48 46 45 44 44 43 41 33 32 30 27 24 24 25 27 24 22 22 24 24 26 25 27 26 25 25
58 51 60 70 60 69 72 70 65 68 72 60 50 52 48 49 45 45 48 44 43 43 43 36 31 30 28 24 21 20 21 21 18 20 22 22 25 25 27 28 27 27 26
62 57 54 67 75 69 70 62 66 65 58 52 49 51 49 49 47 48 49 44 43 43 41 38 35 33 30 24 19 18 16 16 15 15 16 20 23 25 28 28 26 27 27
73 71 69 64 63 62 63 63 61 60 59 54 56 48 46 45 46 47 42 43 47 46 41 40 39 35 30 25 21 15 13 12 14 14 13 15 23 25 25 24 25 26 26